Dewpoint
55 55 55 55 56 56 56 57 57 57 56 57 57 56 57 57 55 50 45 47 52 54 56 52 50 51 48 46 48 45 39 35 35 35 35 36 35 38 39 38 44 43 55 59 62
55 55 55 55 55 56 56 56 56 56 56 56 57 56 57 58 48 45 49 54 51 52 53 50 48 50 45 44 45 43 38 35 37 37 37 36 38 38 37 37 37 43 55 61 63
54 54 54 55 55 55 55 56 56 56 56 56 56 56 57 55 40 39 54 53 50 55 53 52 51 49 44 44 42 41 38 38 38 38 38 38 38 38 36 37 40 40 46 55 61
54 54 54 54 54 55 55 55 55 56 56 56 56 56 57 47 15 42 53 51 52 52 52 50 47 43 42 41 41 40 40 40 40 40 39 38 38 37 37 38 40 41 44 51 57
54 54 54 54 54 54 55 55 55 55 55 55 56 56 45 35 34 42 53 48 48 49 48 47 45 44 41 41 42 40 40 40 40 41 40 40 40 39 37 39 39 40 51 56 58
53 53 53 53 53 54 54 55 55 55 54 54 55 56 40 29 34 46 46 43 47 47 47 47 46 47 43 43 41 40 39 40 40 40 40 39 38 39 37 39 38 39 53 53 57
53 53 53 53 53 53 54 54 55 55 54 54 54 51 39 30 42 43 43 43 47 47 45 48 48 45 44 41 43 42 40 38 37 37 36 38 34 35 37 36 36 37 48 49 54
54 54 54 54 54 54 54 55 56 55 55 54 54 44 31 36 44 43 43 43 45 47 47 48 48 46 45 44 40 36 35 32 32 34 34 35 31 35 35 33 35 37 38 49 54
52 53 53 53 54 54 54 55 54 53 54 54 45 36 28 46 42 42 43 41 45 45 47 47 47 43 42 39 32 30 29 30 31 34 33 34 32 35 35 34 34 36 40 43 51
52 51 51 51 52 54 54 52 51 49 51 47 37 32 30 31 42 43 43 43 42 43 44 44 41 38 37 34 25 26 30 30 31 33 34 34 33 34 35 34 35 36 37 38 44
48 48 49 49 51 53 50 35 27 24 36 26 23 24 28 38 43 43 44 43 42 40 36 41 37 35 34 35 33 33 32 31 32 34 34 33 32 32 33 34 34 37 38 38 41
46 47 47 48 49 51 42 34 35 35 32 33 31 33 35 40 37 39 44 39 39 34 36 35 34 35 35 34 34 33 32 31 32 33 33 32 31 31 32 33 34 35 36 37 39
45 45 46 47 48 44 40 39 43 41 32 29 34 32 32 36 34 35 41 39 37 35 35 29 26 35 34 34 33 32 31 31 31 32 32 29 27 27 28 32 34 36 36 36 36
44 44 44 45 43 44 37 42 42 35 25 21 24 31 35 34 31 35 41 38 37 33 34 33 34 34 34 32 33 30 32 33 32 29 27 29 24 27 27 28 30 31 34 37 40
43 43 43 43 43 42 38 42 41 31 2 14 26 35 35 28 33 37 42 37 31 34 32 23 33 33 33 32 33 31 33 31 30 28 28 26 26 26 26 26 27 28 32 33 37
45 44 43 42 44 44 44 42 34 18 1 13 29 30 30 31 31 36 36 34 33 31 30 31 33 33 32 34 34 33 31 26 27 29 23 24 25 26 23 23 26 27 29 31 32
46 45 42 43 39 44 44 35 19 9 10 7 18 29 28 26 29 34 33 32 28 24 23 22 27 31 35 33 36 33 27 18 15 21 20 20 25 25 26 27 28 28 30 31 32
45 42 43 46 46 44 37 24 9 10 13 19 24 26 25 25 25 31 30 28 31 20 19 17 13 29 34 30 31 31 27 19 11 14 16 24 22 24 28 29 30 30 29 31 32
40 37 40 42 44 43 30 17 14 17 26 27 22 21 20 23 23 27 27 25 27 26 21 17 18 30 35 33 32 30 28 28 24 23 23 22 22 23 25 27 28 28 29 30 30
34 35 35 36 43 36 28 23 21 28 27 28 21 19 15 21 20 24 22 24 25 28 23 18 16 28 31 35 32 30 30 26 26 17 16 18 20 23 24 25 26 27 29 29 30
31 24 32 32 43 37 27 26 28 29 21 26 27 25 23 23 20 19 19 20 23 26 25 22 19 20 33 31 30 30 29 27 26 21 17 13 19 26 26 26 26 27 29 29 30
28 13 26 38 29 32 23 24 22 23 20 22 28 23 22 21 23 22 20 21 18 24 23 24 22 20 25 30 32 30 28 27 22 19 23 18 20 26 27 27 28 28 28 29 30
26 25 31 31 18 16 19 17 21 16 16 17 17 26 17 22 16 17 21 19 17 26 19 24 24 18 18 19 25 31 30 28 25 25 23 20 21 24 27 28 28 28 29 29 30
27 19 24 26 24 15 15 18 17 20 18 19 16 16 15 13 14 18 15 16 18 16 22 21 25 23 17 13 22 26 30 29 26 23 22 23 20 20 22 26 29 29 29 30 30
26 22 26 17 19 20 20 20 18 14 17 18 17 15 17 17 14 12 12 15 17 20 18 17 22 26 26 24 21 20 24 29 28 27 23 21 23 23 22 24 26 28 29 30 28
23 21 24 22 22 20 19 19 17 16 18 16 16 17 18 18 16 16 16 15 15 15 15 19 19 21 17 17 26 23 22 22 27 29 28 26 22 24 24 25 27 28 29 28 27
34 32 28 22 21 17 17 16 17 17 18 18 20 20 18 18 19 18 18 18 18 17 16 16 15 12 11 12 15 20 25 22 20 26 27 27 27 28 27 27 27 28 26 26 25
Lifted_Index
8 9 9 9 9 9 9 9 9 9 10 9 9 9 9 9 11 11 10 10 9 8 8 8 9 9 8 8 7 7 7 8 8 8 6 4 4 4 3 3 1 -0 -3 -4 -3
9 9 9 9 9 9 9 9 9 9 9 9 9 9 9 9 11 11 10 9 8 8 8 8 8 8 8 8 7 7 7 8 8 7 5 4 3 3 3 3 2 0 -2 -3 -3
9 9 9 9 9 9 9 9 9 9 9 9 9 9 9 9 10 10 9 8 8 7 7 8 8 8 8 7 7 7 7 7 7 7 5 3 3 3 3 2 2 1 0 -1 -2
10 10 10 10 10 9 9 9 9 9 9 8 8 8 9 9 9 9 8 8 8 7 7 7 7 7 7 7 7 7 7 7 7 6 5 3 3 3 3 2 2 2 2 0 -1
10 10 10 10 10 9 9 9 9 9 8 8 8 9 9 9 9 9 9 8 8 8 7 7 7 7 7 7 7 7 6 6 6 6 5 4 3 3 3 2 2 2 2 0 -0
10 10 10 10 10 9 9 9 8 8 8 8 8 8 9 9 9 9 9 9 8 8 7 7 7 7 7 7 7 7 7 6 7 6 6 4 4 3 3 3 3 3 1 1 0
9 9 9 9 9 9 9 8 8 8 8 8 8 8 8 9 10 10 9 9 8 8 8 7 7 7 7 7 7 7 7 6 7 7 6 5 4 3 4 4 4 3 3 2 1
9 9 9 9 9 9 9 8 8 8 8 8 8 9 9 10 10 9 9 9 8 8 8 7 7 7 7 7 6 6 6 6 6 7 6 5 4 4 4 4 5 4 4 3 2
10 10 10 9 9 9 9 8 8 8 8 8 9 9 9 9 10 9 9 9 8 8 8 7 7 7 7 6 5 5 5 5 6 7 7 6 5 4 5 5 5 5 5 4 3
11 11 11 11 10 9 9 9 9 9 9 9 9 9 9 9 9 9 9 9 8 8 7 7 6 6 6 6 5 4 4 5 6 7 7 7 6 5 5 5 5 5 5 5 5
12 12 12 11 11 10 10 10 10 10 9 9 9 9 9 10 9 9 9 9 8 7 7 6 6 6 6 6 5 5 4 5 6 7 7 6 6 6 6 6 6 6 6 6 6
13 13 13 12 12 11 11 11 11 10 10 9 9 9 10 10 9 9 9 8 8 7 7 6 5 6 7 7 6 5 5 5 6 7 7 6 5 6 7 7 6 7 6 6 6
14 14 14 13 12 11 11 11 11 11 9 8 8 9 10 10 9 9 8 8 7 6 6 6 6 6 7 6 6 6 5 5 5 6 6 5 4 5 7 7 6 6 6 6 6
15 15 15 14 12 11 11 11 11 10 8 7 8 8 9 9 8 8 8 8 7 6 6 6 6 6 6 6 6 6 6 6 5 5 5 4 3 4 5 6 6 6 6 6 5
15 15 15 15 13 12 11 11 11 9 6 6 7 8 8 8 8 8 8 8 7 7 6 6 7 7 7 7 7 7 7 7 6 5 4 3 3 3 4 5 5 5 5 5 5
15 15 15 15 13 12 11 11 10 7 5 6 7 7 7 7 7 7 7 7 7 6 6 6 7 8 7 7 7 7 7 6 5 4 3 3 3 3 4 5 5 5 4 4 4
16 16 15 14 13 12 11 10 7 6 6 7 7 7 6 6 6 7 6 6 6 6 5 6 6 7 7 7 7 7 6 4 3 2 2 3 3 3 4 5 5 5 4 4 3
16 15 14 13 12 11 10 8 6 6 7 8 7 7 7 7 7 7 6 6 6 5 5 4 5 6 7 7 7 6 5 4 2 2 3 3 3 3 4 4 4 4 4 3 3
16 15 13 11 11 11 9 7 6 7 8 8 7 7 7 7 7 7 7 6 6 5 5 4 4 6 7 7 6 6 6 5 4 3 3 3 3 3 4 4 4 4 4 3 3
16 14 12 11 10 9 8 7 7 9 9 8 7 7 7 7 7 7 7 7 6 6 5 5 5 6 6 6 6 6 6 5 5 3 2 2 3 3 4 4 4 4 4 4 3
16 14 13 12 10 9 8 8 9 9 9 9 8 8 7 7 7 7 7 7 6 6 5 5 5 5 6 6 6 6 6 6 5 4 3 2 3 4 4 4 4 4 4 4 4
16 15 14 13 11 10 10 10 10 10 10 9 9 9 8 8 8 8 7 7 6 6 5 5 5 5 5 6 6 5 6 5 5 4 4 3 4 4 4 4 3 3 4 5 5
17 16 15 14 12 12 12 11 11 11 11 10 10 10 9 9 9 9 8 8 8 7 6 5 5 4 5 5 5 5 5 5 5 4 4 4 4 5 4 4 3 3 4 5 5
17 16 16 15 14 14 13 12 12 12 11 10 10 9 9 9 9 9 9 10 10 9 8 6 5 4 4 4 5 5 5 4 4 4 4 5 5 5 4 4 4 3 4 5 5
16 16 16 16 15 15 14 13 12 11 10 9 8 7 6 6 7 7 8 9 10 10 9 7 5 4 4 4 5 5 5 4 5 5 5 5 6 5 4 4 4 4 4 5 5
15 15 16 15 15 14 12 11 10 8 7 6 5 4 3 3 3 4 5 6 7 8 8 6 5 4 4 4 4 4 4 5 5 5 5 6 6 5 4 4 4 5 5 5 5
15 15 15 15 14 12 10 9 7 6 5 4 3 2 2 1 1 2 3 4 5 6 7 6 5 3 3 4 4 4 5 5 5 5 5 6 5 5 4 4 4 4 5 5 5